Weather History for VILK - January, 2014

Change the Weather History Date:

Thursday, January 16, 2014

  Actual Average Record
Temperature  
Mean Temperature 52 °F -  
Max Temperature 61 °F 70 °F 82 °F (2006)
Min Temperature 43 °F 51 °F 42 °F (2001)
Degree Days  
Heating Degree Days 13    
Growing Degree Days 2 (Base 50)    
Moisture  
Dew Point 50 °F    
Average Humidity 89    
Maximum Humidity 100    
Minimum Humidity 66    
Precipitation  
Precipitation 0.00 in - - ()
Sea Level Pressure  
Sea Level Pressure 30.08 in    
Wind  
Wind Speed 3 mph ()    
Max Wind Speed 6 mph    
Max Gust Speed -    
Visibility 0.5 miles    
Events Fog    
Averages and records for this station are not official NWS values.
T = Trace of Precipitation, MM = Missing Value Source: Averaged Metar Reports

Daily Weather History Graph

Daily Weather History Graph

Search for Another Location

Airport or City:

Trip Planner

Search our weather history database for the weather conditions in past years. The results will help you decide how hot, cold, wet, or windy it might be!

Date:

Astronomy

Jan. 16, 2014 Rise Set
Actual Time 6:56 AM IST 5:35 PM IST
Civil Twilight 6:31 AM IST 6:00 PM IST
Nautical Twilight 6:03 AM IST 6:29 PM IST
Astronomical Twilight 5:35 AM IST 6:57 PM IST
Moon 5:54 PM IST (1/16) 6:38 AM IST (1/16)
Length of Visible Light 11h 29m
Length of Day
10h 39m
Full, 100% of the Moon is Illuminated
Jan 16
Full
Jan 24
Last Quarter
Jan 31
New
Feb 7
First Quarter
Feb 15
Full

Hourly Weather History & Observations

Time (IST) Temp. Windchill Dew Point Humidity Pressure Visibility Wind Dir Wind Speed Gust Speed Precip Events Conditions
12:00 AM 50.0 °F - 50.0 °F 100% 30.09 in - Variable 2.3 mph - N/A Fog Shallow Fog
1:00 AM 48.2 °F - 48.2 °F 100% 30.06 in 0.1 mi Variable 2.3 mph - N/A Fog Fog
2:00 AM 48.2 °F - 48.2 °F 100% 30.06 in 0.1 mi WNW 4.6 mph - N/A Fog Fog
2:30 AM 47 °F - 46 °F 97% 30.11 in 0 mi 2.3 mph - - Fog Heavy Fog
3:00 AM 46.4 °F - 46.4 °F 100% 30.06 in - Variable 2.3 mph - N/A Fog Fog
4:00 AM 46.4 °F 45.2 °F 46.4 °F 100% 30.06 in - West 3.5 mph - N/A Fog Fog
5:00 AM 50.0 °F - 48.2 °F 94% 30.06 in 0.1 mi WSW 4.6 mph - N/A Fog Fog
5:30 AM 50 °F - 49 °F 95% 30.10 in 0 mi West 4.6 mph - - Fog Heavy Fog
6:30 AM 50.0 °F - 48.2 °F 94% 30.06 in 0.0 mi West 3.5 mph - N/A Fog Fog
7:00 AM 50.0 °F - 48.2 °F 94% 30.09 in 0.0 mi NW 3.5 mph - N/A Fog Fog
7:30 AM 50.0 °F - 48.2 °F 94% 30.09 in 0.0 mi WNW 2.3 mph - N/A Fog Fog
8:00 AM 50.0 °F - 50.0 °F 100% 30.09 in 0.0 mi WSW 3.5 mph - N/A Fog Fog
8:30 AM 51 °F - 49 °F 92% 30.15 in 0 mi WSW 4.6 mph - - Fog Heavy Fog
8:30 AM 50.0 °F - 50.0 °F 100% 30.12 in 0.0 mi WSW 4.6 mph - N/A Fog Fog
9:00 AM 50.0 °F - 50.0 °F 100% 30.12 in 0.1 mi West 4.6 mph - N/A Fog Fog
9:30 AM 50.0 °F - 50.0 °F 100% 30.12 in 0.1 mi Variable 2.3 mph - N/A Fog Fog
10:00 AM 51.8 °F - 51.8 °F 100% 30.15 in 0.2 mi West 3.5 mph - N/A Fog Fog
11:30 AM 55 °F - 51 °F 83% 30.16 in 1 mi NW 5.8 mph - - Fog Patches of Fog
11:30 AM 55.4 °F - 51.8 °F 88% 30.12 in 0.6 mi NW 5.8 mph - N/A Fog Shallow Fog
12:00 PM 55.4 °F - 51.8 °F 88% 30.09 in 0.6 mi NW 5.8 mph - N/A Fog Shallow Fog
1:00 PM 59.0 °F - 50.0 °F 72% 30.06 in 1.0 mi NW 3.5 mph - N/A   Scattered Clouds
1:30 PM 60.8 °F - 51.8 °F 72% 30.06 in 1.0 mi North 3.5 mph - N/A   Scattered Clouds
2:00 PM 60.8 °F - 51.8 °F 72% 30.06 in 1.0 mi NNW 5.8 mph - N/A   Haze
2:30 PM 60 °F - 52 °F 66% 30.07 in 1 mi NNW 5.8 mph - -   Haze
2:30 PM 60.8 °F - 51.8 °F 72% 30.04 in 1.0 mi NNW 5.8 mph - N/A   Haze
3:00 PM 60.8 °F - 51.8 °F 72% 30.04 in 1.0 mi North 4.6 mph - N/A   Haze
3:30 PM 60.8 °F - 51.8 °F 72% 30.04 in 1.0 mi NNW 5.8 mph - N/A   Haze
4:30 PM 59.0 °F - 53.6 °F 82% 30.04 in 0.9 mi NW 4.6 mph - N/A   Scattered Clouds
5:00 PM 57.2 °F - 53.6 °F 88% 30.06 in 0.9 mi NW 4.6 mph - N/A   Scattered Clouds
5:30 PM 56 °F - 52 °F 81% 30.09 in 1 mi NW 4.6 mph - -   Mist
5:30 PM 57.2 °F - 53.6 °F 88% 30.06 in 0.7 mi NW 4.6 mph - N/A   Mostly Cloudy
6:00 PM 55.4 °F - 51.8 °F 88% 30.06 in 0.7 mi NNW 3.5 mph - N/A   Mostly Cloudy
6:30 PM 53.6 °F - 51.8 °F 94% 30.06 in 0.6 mi NNW 3.5 mph - N/A   Mostly Cloudy
7:00 PM 53.6 °F - 51.8 °F 94% 30.06 in 0.6 mi North 4.6 mph - N/A Fog Shallow Fog
8:30 PM 53 °F - 51 °F 88% 30.14 in 0 mi Calm Calm - - Fog Partial Fog
10:00 PM 53.6 °F - 50.0 °F 88% 30.09 in 0.4 mi Calm Calm - N/A Fog Fog
11:30 PM 55 °F - 52 °F 88% 30.14 in 0 mi Calm Calm - - Fog Partial Fog